Content
SEND FEEDBACK

Daily
Averages
Monthly
Summary
United States of America

BAYOU LA BATRE, ALABAMA


Home > North America > United States > Alabama
Elevation: 0 feet     Latitude: 30 23N     Longitude: 088 14W

WEATHER
 
SELECT A DAY
Number of Records: 198,160;   Date Range: 8/14/97 - 9/30/14
 
SHARE

PRINT THIS DATA

[ ← Previous Day ]
WEATHER ALMANAC - FEBRUARY 12, 2014
[ Next Day → ]
[ °C ]   °F
Weather ElementAverageHighLow
Temperature44.6 °F48.2 °F (11:48 am)39.9 °F (1:39 am)
Dewpoint43.1 °F46.9 °F (11:25 am)37 °F (11:53 pm)
Humidity94.7 %100 % (2:48 am)86 % (4:53 pm)
Barometer29.90 in30.02 in (2:12 am)29.82 in (1:53 pm)
Wind Speed10.3 mph21.9 mph (2:16 am)
Wind Gust27.6 mph (2:16 am)
Weather ElementAverage
Visibility6 mi
Wind DirectionSSW (191.6 °)

Weather ElementTotal
Precipitation3.06 in
Heating Degree Days21 (Base 65)
Averaged from 45 records on February 12, 2014
WEATHER CONDITIONS BREAKOUT
WIND DIRECTION BREAKOUT
WEATHER BY HOUR - FEBRUARY 12, 2014
[ °C ]   °F
Local TimeTemperatureDewpointHumidityBarometerVisibilityWind DirectionWind SpeedGust SpeedPrecipitationEventsConditions
1:39 AM39.9 °F39.0 °F97 %29.96 in10.0 miNNE (20°)9.2 mph19.6 mph0.00 inRainLight Rain
1:53 AM39.9 °F39.0 °F97 %29.95 in6.0 miNNE (20°)13.8 mph0.02 inRainLight Rain
2:12 AM41.0 °F39.9 °F96 %30.02 in4.0 miNW (320°)12.7 mph24.2 mph0.08 inRainRain
2:16 AM41.0 °F39.9 °F96 %29.91 in2.0 miNE (50°)21.9 mph27.6 mph0.21 inRainHeavy Rain
2:23 AM41.0 °F39.9 °F96 %29.95 in1.8 miNorth (350°)17.3 mph27.6 mph0.25 inRainHeavy Rain
2:26 AM42.1 °F41.0 °F96 %29.96 in3.0 miNNW (340°)18.4 mph0.26 inRainRain
2:36 AM42.1 °F41.0 °F96 %29.96 in1.8 miNE (40°)17.3 mph25.3 mph0.52 inRainHeavy Rain
2:48 AM42.8 °F42.8 °F100 %29.92 in1.8 miNE (50°)15.0 mph27.6 mph0.74 inRainHeavy Rain
2:53 AM43.0 °F42.1 °F97 %29.94 in2.5 miENE (60°)12.7 mph27.6 mph0.76 inRainHeavy Rain
3:00 AM44.1 °F42.1 °F93 %29.90 in4.0 miEast (80°)17.3 mph23.0 mph0.03 inRainHeavy Rain
3:53 AM45.0 °F44.1 °F97 %29.92 in8.0 miNE (40°)8.1 mph0.15 inRainRain
4:05 AM45.0 °F44.1 °F97 %29.91 in7.0 miNorth (350°)9.2 mph0.01 inRainLight Rain
4:53 AM45.0 °F44.1 °F97 %29.91 in10.0 miNNE (30°)8.1 mph0.03 inOvercast
5:53 AM45.0 °F44.1 °F97 %29.90 in10.0 miNorth (360°)9.2 mph0.00 inOvercast
6:53 AM45.0 °F44.1 °F97 %29.92 in10.0 miNorth (10°)6.9 mphOvercast
7:53 AM45.0 °F44.1 °F97 %29.93 in6.0 miNorth (10°)9.2 mphOvercast
8:46 AM45.0 °F44.1 °F97 %29.91 in2.5 miNorth (10°)9.2 mphOvercast
8:53 AM45.0 °F45.0 °F100 %29.92 in2.5 miNorth (10°)8.1 mphOvercast
9:30 AM46.0 °F45.0 °F96 %29.93 in1.8 miNorth (10°)6.9 mphOvercast
9:53 AM46.0 °F45.0 °F96 %29.94 in1.5 miNorth (10°)6.9 mphOvercast
10:36 AM46.9 °F46.0 °F97 %29.90 in2.5 miNNE (20°)9.2 mph0.00 inRainLight Rain
10:43 AM46.9 °F46.0 °F97 %29.90 in4.0 miNNE (20°)9.2 mph0.00 inOvercast
10:53 AM46.9 °F46.0 °F97 %29.90 in3.0 miNorth (10°)9.2 mph0.00 inOvercast
11:06 AM46.9 °F46.0 °F97 %29.88 in1.8 miNNE (20°)9.2 mph0.00 inRainLight Rain
11:25 AM48.0 °F46.9 °F96 %29.89 in2.5 miNorth (360°)10.4 mph0.00 inRainLight Rain
11:34 AM48.0 °F46.0 °F93 %29.89 in3.0 miNorth (10°)9.2 mph0.00 inOvercast
11:48 AM48.2 °F46.4 °F93 %29.88 in2.0 miNorth (10°)8.1 mph0.00 inOvercast
11:53 AM48.0 °F46.9 °F96 %29.89 in1.5 miNorth (360°)10.4 mph0.00 inOvercast
12:22 PM48.0 °F46.9 °F96 %29.87 in3.0 miNorth (350°)11.5 mph0.00 inOvercast
12:53 PM48.0 °F46.0 °F93 %29.86 in4.0 miNNW (330°)8.1 mph0.00 inOvercast
1:53 PM46.9 °F45.0 °F93 %29.82 in9.0 miNNW (340°)11.5 mph17.3 mphOvercast
2:53 PM46.0 °F44.1 °F93 %29.84 in10.0 miNNW (330°)9.2 mph18.4 mphOvercast
3:29 PM46.0 °F44.1 °F93 %29.83 in10.0 miNNW (340°)9.2 mphOvercast
3:36 PM46.0 °F44.1 °F93 %29.83 in10.0 miNNW (330°)9.2 mphOvercast
3:53 PM45.0 °F43.0 °F93 %29.84 in10.0 miNorth (350°)10.4 mph18.4 mphOvercast
4:49 PM46.4 °F42.8 °F87 %29.84 in10.0 miNorth (350°)10.4 mphOvercast
4:53 PM46.0 °F42.1 °F86 %29.85 in10.0 miNNW (340°)9.2 mphOvercast
5:31 PM44.1 °F42.1 °F93 %29.86 in9.0 miNW (310°)9.2 mphOvercast
5:53 PM44.1 °F42.1 °F93 %29.86 in10.0 miNNW (330°)8.1 mphOvercast
6:53 PM44.1 °F42.1 °F93 %29.88 in10.0 miNNW (330°)10.4 mphOvercast
7:53 PM43.0 °F41.0 °F93 %29.89 in10.0 miNNW (330°)6.9 mphOvercast
8:53 PM42.1 °F39.9 °F92 %29.91 in10.0 miNW (320°)9.2 mph17.3 mphOvercast
9:53 PM42.1 °F39.0 °F89 %29.92 in10.0 miNW (320°)4.6 mphOvercast
10:53 PM39.9 °F37.9 °F93 %29.93 in10.0 miNW (320°)9.2 mphOvercast
11:53 PM39.9 °F37.0 °F89 %29.94 in10.0 miNW (320°)6.9 mphOvercast
Hourly data recorded from KPQL, located miles away from Bayou La Batre, Alabama







STORIES FROM OUR PARTNERS